Location: Eindhoven
(51.4416°N, 5.4697°E)
Time: 14:29:44
(UTC+01:00)

Vanguard 1 - All Passes

Search period start: 21 November 2019 00:00
Search period end: 01 December 2019 00:00
Orbit: 652 x 3831 km, 34.2° (Epoch: 20 November)

Date Brightness Start Highest point End Pass type
(mag) Time Alt. Az. Time Alt. Az. Time Alt. Az.
21 Nov - 09:30:34 10° SSW 09:36:13 15° SSE 09:40:34 10° SE daylight
21 Nov - 11:50:38 10° SW 11:56:05 18° S 12:00:09 10° SE daylight
21 Nov - 14:14:12 10° SSW 14:14:58 10° SSW 14:15:43 10° SSW daylight
22 Nov - 09:49:56 10° SSW 09:57:00 18° S 10:02:07 10° SE daylight
22 Nov - 12:11:17 10° SW 12:16:44 19° S 12:20:46 10° SE daylight
23 Nov - 07:51:57 10° S 07:57:10 13° SSE 08:01:28 10° SE daylight
23 Nov - 10:09:52 10° SW 10:17:46 21° S 10:23:14 10° SE daylight
23 Nov - 12:32:08 10° SW 12:37:20 18° SSW 12:41:12 10° SSE daylight
24 Nov - 08:09:56 10° SSW 08:17:59 17° SSE 08:23:59 10° SE daylight
24 Nov - 10:30:09 10° SW 10:38:31 23° S 10:44:07 10° SE daylight
24 Nov - 12:53:13 10° WSW 12:57:51 16° SSW 13:01:25 10° SSE daylight
25 Nov - 08:29:04 10° SSW 08:38:48 21° SSE 08:45:36 10° ESE daylight
25 Nov - 10:50:44 10° SW 10:59:13 24° S 11:04:51 10° SE daylight
25 Nov - 13:14:36 10° WSW 13:18:18 14° SSW 13:21:19 10° S daylight
26 Nov - 06:31:43 10° S 06:38:24 13° SSE 06:43:56 10° SE visible
26 Nov - 08:48:48 10° SW 08:59:38 24° S 09:06:49 10° ESE daylight
26 Nov - 11:11:30 10° WSW 11:19:52 25° S 11:25:25 10° SE daylight
26 Nov - 13:36:40 10° SW 13:38:41 11° SSW 13:40:28 10° SSW daylight
27 Nov - 06:49:11 10° S 06:59:12 18° SSE 07:06:44 10° ESE visible
27 Nov - 09:08:56 10° SW 09:20:26 27° S 09:27:47 10° ESE daylight
27 Nov - 11:32:27 10° WSW 11:40:29 24° SSW 11:45:52 10° SE daylight
28 Nov - 07:07:55 10° SSW 07:20:02 22° SSE 07:28:34 10° ESE visible
28 Nov - 09:29:23 10° SW 09:41:13 29° S 09:48:36 10° ESE daylight
28 Nov - 11:53:35 10° WSW 12:01:00 22° SSW 12:06:07 10° SSE daylight
29 Nov - 05:12:18 10° SSE 05:19:09 13° SE 05:25:05 10° ESE visible
29 Nov - 07:27:21 10° SSW 07:40:52 26° SSE 07:49:56 10° ESE visible
29 Nov - 09:50:05 10° WSW 10:01:57 31° S 10:09:17 10° SE daylight
29 Nov - 12:14:54 10° WSW 12:21:26 19° SSW 12:26:09 10° SSE daylight
30 Nov - 05:28:47 10° S 05:39:53 18° SSE 05:48:38 10° ESE visible
30 Nov - 07:47:15 10° SW 08:01:42 30° SSE 08:11:01 10° ESE daylight
30 Nov - 10:10:57 10° WSW 10:22:38 31° S 10:29:51 10° SE daylight
30 Nov - 12:36:33 10° WSW 12:41:47 16° SW 12:45:48 10° S daylight
